DW8953 Weather Reports


time (UTC)temp
C
wind
direction
speed
KPH
gust
KPH
rain 1hr
cm
rain 24hr
cm
rain mn
cm
humidity
%
barometer
mb
20211025041707 16 0 0.0 0.0 0.00 0.08 0.08 83 1015.6
20211025040107 16 0 0.0 0.0 0.00 0.08 0.08 84 1015.5
20211025034736 16 0 0.0 0.0 0.00 0.08 0.08 84 1015.7
20211025033109 16 0 0.0 0.0 0.00 0.08 0.08 86 1016.0
20211025031604 15 0 0.0 0.0 0.03 0.08 0.08 88 1016.4
20211025030100 15 0 0.0 0.0 0.03 0.08 0.08 89 1016.5
20211025024644 15 0 0.0 0.0 0.03 0.08 0.08 90 1016.4
20211025023129 14 0 0.0 0.0 0.03 0.08 0.08 92 1016.2
20211025021655 13 0 0.0 0.0 0.00 0.05 0.05 89 1016.3
20211025020112 14 0 0.0 0.0 0.00 0.05 0.05 87 1016.1
20211025014647 15 0 0.0 0.0 0.00 0.05 0.05 86 1016.3
20211025013119 15 0 0.0 0.0 0.00 0.05 0.05 86 1016.3
20211025011626 16 0 0.0 0.0 0.00 0.05 0.05 83 1016.2
20211025010118 16 0 0.0 0.0 0.00 0.05 0.05 82 1016.4
20211025004556 17 0 0.0 0.0 0.00 0.05 0.05 81 1016.6
20211025003056 17 0 0.0 0.0 0.00 0.05 0.05 77 1016.7
20211025001619 18 0 0.0 0.0 0.00 0.05 0.05 76 1016.9
20211025000150 18 0 0.0 0.0 0.00 0.05 0.05 74 1016.8
20211024234634 18 0 0.0 0.0 0.00 0.08 0.05 75 1016.5
20211024233137 18 0 0.0 0.0 0.00 0.08 0.05 76 1016.5
20211024231602 18 0 0.0 0.0 0.00 0.08 0.05 76 1016.4
20211024230128 19 0 0.0 0.0 0.00 0.08 0.05 76 1016.5
20211024224556 20 0 0.0 0.0 0.00 0.08 0.05 73 1016.5
20211024223136 20 0 0.0 0.0 0.00 0.08 0.05 71 1016.4
20211024221605 21 0 0.0 0.0 0.00 0.08 0.05 69 1016.3
20211024220116 21 0 0.0 0.0 0.00 0.08 0.05 69 1016.3
20211024214559 21 0 0.0 0.0 0.00 0.08 0.05 66 1016.5
20211024213134 21 0 0.0 0.0 0.00 0.08 0.05 63 1016.7
20211024211624 22 0 0.0 0.0 0.00 0.08 0.05 62 1016.9
20211024210122 22 0 0.0 0.0 0.00 0.08 0.05 61 1017.0
20211024204616 22 0 0.0 0.0 0.00 0.08 0.05 59 1017.1
20211024203058 23 0 0.0 0.0 0.00 0.08 0.05 58 1017.2
20211024201549 23 0 0.0 0.0 0.00 0.08 0.05 58 1017.2
20211024200242 23 0 0.0 0.0 0.00 0.08 0.05 58 1017.1
20211024194614 23 0 0.0 0.0 0.00 0.10 0.05 58 1017.2
20211024193146 23 0 0.0 0.0 0.00 0.10 0.05 55 1017.3
20211024191728 24 0 0.0 0.0 0.03 0.10 0.05 57 1017.3
20211024190108 24 0 0.0 0.0 0.03 0.10 0.05 59 1017.4
20211024184641 24 0 0.0 0.0 0.03 0.10 0.05 58 1017.5
20211024183119 23 0 0.0 0.0 0.03 0.10 0.05 59 1017.5
20211024181601 24 0 0.0 0.0 0.00 0.08 0.03 60 1017.6
20211024180144 24 0 0.0 0.0 0.00 0.08 0.03 57 1018.0
20211024174623 23 0 0.0 0.0 0.00 0.08 0.03 60 1018.2
20211024173116 22 0 0.0 0.0 0.00 0.08 0.03 63 1018.2
20211024171554 22 0 0.0 0.0 0.00 0.08 0.03 63 1018.5
20211024170118 22 0 0.0 0.0 0.00 0.08 0.03 62 1018.8
20211024164716 22 0 0.0 0.0 0.00 0.08 0.03 68 1018.9
20211024163056 21 0 0.0 0.0 0.00 0.08 0.03 68 1019.2
20211024161705 21 0 0.0 0.0 0.00 0.08 0.03 67 1019.0
20211024160118 20 0 0.0 0.0 0.00 0.08 0.03 70 1019.2
20211024154556 20 0 0.0 0.0 0.00 0.08 0.03 70 1019.2
20211024153156 20 0 0.0 0.0 0.00 0.08 0.03 71 1019.0
20211024151556 19 0 0.0 0.0 0.00 0.08 0.03 75 1019.1
20211024150106 18 0 0.0 0.0 0.00 0.08 0.03 77 1019.3
20211024144609 18 0 0.0 0.0 0.00 0.08 0.03 78 1019.3
20211024143131 17 0 0.0 0.0 0.00 0.08 0.03 81 1019.5
20211024141639 16 0 0.0 0.0 0.00 0.08 0.03 86 1019.5
20211024140053 15 0 0.0 0.0 0.00 0.08 0.03 93 1019.4
20211024134654 14 0 0.0 0.0 0.00 0.08 0.03 97 1019.3
20211024133113 13 0 0.0 0.0 0.00 0.08 0.03 98 1019.1
20211024131626 13 0 0.0 0.0 0.00 0.08 0.03 98 1019.1
20211024130119 11 0 0.0 0.0 0.00 0.08 0.03 98 1018.8
20211024124610 11 0 0.0 0.0 0.00 0.08 0.03 98 1018.4
20211024123055 10 0 0.0 0.0 0.00 0.08 0.03 97 1018.2
20211024121632 10 0 0.0 0.0 0.00 0.08 0.03 97 1018.4
20211024120122 10 0 0.0 0.0 0.00 0.08 0.03 97 1018.4
20211024114604 10 0 0.0 0.0 0.00 0.10 0.03 97 1018.3
20211024113122 10 0 0.0 0.0 0.00 0.10 0.03 97 1018.0
20211024111608 10 0 0.0 0.0 0.00 0.10 0.03 97 1018.0
20211024110050 10 0 0.0 0.0 0.00 0.10 0.03 97 1018.2
20211024104644 10 0 0.0 0.0 0.03 0.10 0.03 97 1018.2
20211024103132 10 0 0.0 0.0 0.03 0.10 0.03 97 1018.2
20211024101626 10 0 0.0 0.0 0.03 0.10 0.03 97 1018.0
20211024100107 10 0 0.0 0.0 0.03 0.10 0.03 97 1018.0
20211024094722 9 0 0.0 0.0 0.00 0.08 0.00 97 1017.9
20211024093119 9 0 0.0 0.0 0.00 0.08 0.00 96 1017.9
20211024091626 10 0 0.0 0.0 0.00 0.08 0.00 96 1017.8
20211024090209 10 0 0.0 0.0 0.00 0.08 0.00 97 1018.1
20211024084659 10 0 0.0 0.0 0.00 0.08 0.00 96 1018.0
20211024083200 10 0 0.0 0.0 0.00 0.08 0.00 97 1017.8
20211024081753 10 0 0.0 0.0 0.00 0.08 0.00 97 1017.7
20211024080250 10 0 0.0 0.0 0.00 0.08 0.00 96 1018.0
20211024074606 10 0 0.0 0.0 0.00 0.08 0.00 97 1018.0
20211024073416 10 0 0.0 0.0 0.00 0.08 0.00 96 1018.1
20211024071628 10 0 0.0 0.0 0.00 0.08 0.00 96 1018.0
20211024070102 9 0 0.0 0.0 0.00 0.08 0.00 96 1018.2
20211024064605 10 0 0.0 0.0 0.00 0.08 0.00 96 1018.2
20211024063120 10 0 0.0 0.0 0.00 0.08 0.00 96 1018.1
20211024061634 10 0 0.0 0.0 0.00 0.08 0.00 96 1017.9
20211024060059 10 0 0.0 0.0 0.00 0.08 0.00 96 1017.9
20211024054632 10 0 0.0 0.0 0.00 0.08 0.00 96 1017.7
20211024053121 10 0 0.0 0.0 0.00 0.08 0.00 96 1017.7
20211024051618 10 0 0.0 0.0 0.00 0.08 0.00 96 1017.9
20211024050056 10 0 0.0 0.0 0.00 0.08 0.00 95 1017.6
20211024044617 10 0 0.0 0.0 0.00 0.08 0.08 95 1017.7
20211024043122 10 0 0.0 0.0 0.00 0.08 0.08 95 1017.7